Weather History for Newport, RI

Change the Weather History Date:

Thursday, December 5, 2013

  Actual Average Record
Temperature  
Mean Temperature 48 °F -  
Max Temperature 54 °F 44 °F 66 °F (2001)
Min Temperature 41 °F 29 °F 13 °F (1991)
Degree Days  
Heating Degree Days 18    
Moisture  
Dew Point 48 °F    
Average Humidity 94    
Maximum Humidity 100    
Minimum Humidity 87    
Precipitation  
Precipitation 0.00 in - - ()
Sea Level Pressure  
Sea Level Pressure 30.06 in    
Wind  
Wind Speed 6 mph (SSE)    
Max Wind Speed 14 mph    
Max Gust Speed 24 mph    
Visibility 4 miles    
Events Fog    
Averages and records for this station are not official NWS values.
T = Trace of Precipitation, MM = Missing Value Source: NWS Daily Summary

Daily Weather History Graph

Daily Weather History Graph

Search for Another Location

Airport:

Trip Planner

Search our weather history database for the weather conditions in past years. The results will help you decide how hot, cold, wet, or windy it might be!

Date:

Astronomy

Dec. 05, 2013 Rise Set
Actual Time 6:56 AM EST 4:15 PM EST
Civil Twilight 6:25 AM EST 4:46 PM EST
Nautical Twilight 5:50 AM EST 5:20 PM EST
Astronomical Twilight 5:17 AM EST 5:54 PM EST
Moon 9:13 AM EST (12/5) 7:33 PM EST (12/5)
Length of Visible Light 10h 20m
Length of Day
9h 18m
Waxing Crescent, 10% of the Moon is Illuminated
Dec 5
Waxing Crescent
Dec 9
First Quarter
Dec 17
Full
Dec 25
Last Quarter
Jan 1
New

Hourly Weather History & Observations

Time (EST) Temp. Windchill Dew Point Humidity Pressure Visibility Wind Dir Wind Speed Gust Speed Precip Events Conditions
12:53 AM 41.0 °F - 39.0 °F 93% 30.18 in 7.0 mi Calm Calm - N/A   Overcast
1:23 AM 42.1 °F - 39.0 °F 89% 30.19 in 7.0 mi Calm Calm - N/A   Overcast
1:53 AM 41.0 °F 39.0 °F 39.0 °F 93% 30.19 in 6.0 mi ESE 3.5 mph - N/A   Scattered Clouds
2:53 AM 42.1 °F 38.4 °F 39.9 °F 92% 30.18 in 6.0 mi SE 5.8 mph - N/A   Overcast
3:53 AM 44.1 °F 40.8 °F 42.1 °F 93% 30.18 in 6.0 mi ESE 5.8 mph - N/A   Overcast
4:53 AM 45.0 °F 41.8 °F 42.1 °F 90% 30.18 in 7.0 mi ESE 5.8 mph - N/A   Overcast
5:53 AM 46.0 °F 43.1 °F 43.0 °F 89% 30.17 in 8.0 mi East 5.8 mph - N/A   Overcast
6:39 AM 46.0 °F 42.5 °F 43.0 °F 89% 30.15 in 8.0 mi ESE 6.9 mph - N/A   Overcast
6:53 AM 46.0 °F 42.5 °F 43.0 °F 89% 30.15 in 8.0 mi ESE 6.9 mph - N/A   Overcast
7:30 AM 46.9 °F - 44.1 °F 90% 30.15 in 6.0 mi ESE 5.8 mph - N/A   Overcast
7:53 AM 46.9 °F - 44.1 °F 90% 30.16 in 6.0 mi ESE 8.1 mph - N/A   Overcast
8:37 AM 46.9 °F - 44.1 °F 90% 30.15 in 6.0 mi ESE 9.2 mph - N/A   Overcast
8:53 AM 46.9 °F - 44.1 °F 90% 30.15 in 7.0 mi ESE 6.9 mph - N/A   Overcast
9:11 AM 46.9 °F - 44.1 °F 90% 30.14 in 5.0 mi ESE 10.4 mph - N/A   Overcast
9:53 AM 48.0 °F - 45.0 °F 89% 30.14 in 6.0 mi ESE 9.2 mph - N/A   Overcast
10:53 AM 50.0 °F - 46.9 °F 89% 30.11 in 6.0 mi ESE 11.5 mph 18.4 mph N/A   Overcast
11:48 AM 50.0 °F - 46.4 °F 87% 30.10 in 5.0 mi SE 10.4 mph - N/A   Overcast
11:53 AM 50.0 °F - 46.9 °F 89% 30.10 in 5.0 mi SE 9.2 mph - N/A   Overcast
12:46 PM 50.0 °F - 48.0 °F 93% 30.06 in 1.5 mi SE 10.4 mph - 0.00 in   Overcast
12:53 PM 50.0 °F - 48.9 °F 96% 30.06 in 1.0 mi SE 9.2 mph - 0.00 in   Overcast
1:12 PM 51.1 °F - 48.9 °F 92% 30.05 in 2.5 mi ESE 9.2 mph - N/A   Overcast
1:21 PM 51.1 °F - 48.9 °F 92% 30.04 in 3.0 mi ESE 8.1 mph - N/A   Overcast
1:53 PM 51.1 °F - 48.9 °F 92% 30.04 in 3.0 mi SE 6.9 mph - N/A   Overcast
2:25 PM 51.1 °F - 50.0 °F 96% 30.02 in 2.0 mi SE 5.8 mph - N/A   Overcast
2:33 PM 51.1 °F - 50.0 °F 96% 30.02 in 1.8 mi SE 5.8 mph - N/A   Overcast
2:40 PM 51.1 °F - 50.0 °F 96% 30.03 in 1.8 mi SE 5.8 mph - N/A   Overcast
2:53 PM 51.1 °F - 50.0 °F 96% 30.03 in 0.8 mi SE 4.6 mph - N/A   Overcast
3:53 PM 52.0 °F - 52.0 °F 100% 30.03 in 0.2 mi SSE 4.6 mph - N/A Fog Fog
4:53 PM 52.0 °F - 52.0 °F 100% 30.04 in 0.2 mi South 3.5 mph - N/A Fog Fog
5:53 PM 52.0 °F - 52.0 °F 100% 30.03 in 0.2 mi South 6.9 mph - N/A Fog Fog
6:53 PM 52.0 °F - 52.0 °F 100% 30.03 in 0.2 mi Calm Calm - N/A Fog Fog
7:53 PM 52.0 °F - 51.1 °F 97% 30.02 in 0.5 mi South 6.9 mph - N/A Fog Fog
8:03 PM 52.0 °F - 51.1 °F 97% 30.02 in 2.0 mi South 5.8 mph - N/A   Overcast
8:08 PM 52.0 °F - 51.1 °F 97% 30.01 in 3.0 mi South 6.9 mph - N/A   Overcast
8:23 PM 52.0 °F - 51.1 °F 97% 30.01 in 2.5 mi South 5.8 mph - N/A   Overcast
8:29 PM 52.0 °F - 51.1 °F 97% 30.01 in 0.8 mi South 6.9 mph - N/A   Overcast
8:53 PM 51.1 °F - 51.1 °F 100% 30.00 in 0.5 mi SSE 5.8 mph - N/A Fog Fog
9:31 PM 53.1 °F - 52.0 °F 96% 29.99 in 1.8 mi South 9.2 mph - N/A   Overcast
9:35 PM 53.1 °F - 52.0 °F 96% 29.99 in 3.0 mi South 10.4 mph - N/A   Overcast
9:44 PM 52.0 °F - 52.0 °F 100% 29.99 in 4.0 mi South 11.5 mph - N/A   Overcast
9:53 PM 53.1 °F - 52.0 °F 96% 29.99 in 5.0 mi South 11.5 mph - N/A   Overcast
9:59 PM 53.1 °F - 52.0 °F 96% 29.98 in 5.0 mi South 11.5 mph - N/A   Overcast
10:18 PM 54.0 °F - 53.1 °F 97% 29.98 in 1.8 mi SSW 12.7 mph 19.6 mph N/A   Overcast
10:37 PM 54.0 °F - 53.1 °F 97% 29.98 in 3.0 mi SSW 11.5 mph 21.9 mph N/A   Overcast
10:48 PM 53.6 °F - 53.6 °F 100% 29.97 in 2.5 mi SSW 12.7 mph 24.2 mph N/A   Overcast
10:53 PM 54.0 °F - 53.1 °F 97% 29.97 in 3.0 mi SSW 12.7 mph 24.2 mph N/A   Overcast
11:02 PM 54.0 °F - 53.1 °F 97% 29.97 in 1.8 mi SSW 13.8 mph 23.0 mph N/A   Overcast
11:16 PM 53.1 °F - 53.1 °F 100% 29.97 in 0.5 mi SSW 11.5 mph 20.7 mph N/A Fog Fog
11:53 PM 53.1 °F - 53.1 °F 100% 29.95 in 0.2 mi SSW 12.7 mph 20.7 mph N/A Fog Fog